Weather History for Assiniboia, SK

Change the Weather History Date:

Thursday, August 22, 2013

  Actual Average Record
Temperature  
Mean Temperature 64 °F -  
Max Temperature 80 °F - - ()
Min Temperature 47 °F - - ()
Degree Days  
Heating Degree Days 2    
Growing Degree Days 14 (Base 50)    
Moisture  
Dew Point 45 °F    
Average Humidity 56    
Maximum Humidity 83    
Minimum Humidity 22    
Precipitation  
Precipitation 0.00 in - - ()
Sea Level Pressure  
Sea Level Pressure 30.11 in    
Wind  
Wind Speed 6 mph ()    
Max Wind Speed 13 mph    
Max Gust Speed 21 mph    
T = Trace of Precipitation, MM = Missing Value Source: Averaged Metar Reports

Daily Weather History Graph

Daily Weather History Graph

Search for Another Location

Airport:

Trip Planner

Search our weather history database for the weather conditions in past years. The results will help you decide how hot, cold, wet, or windy it might be!

Date:

Astronomy

Aug. 22, 2013 Rise Set
Actual Time 6:04 AM CST 8:07 PM CST
Civil Twilight 5:30 AM CST 8:41 PM CST
Nautical Twilight 4:47 AM CST 9:24 PM CST
Astronomical Twilight 3:58 AM CST 10:12 PM CST
Moon 8:33 PM CST (8/22) 8:13 AM CST (8/22)
Length of Visible Light 15h 11m
Length of Day
14h 02m
Waning Gibbous, 96% of the Moon is Illuminated
Aug 22
Waning Gibbous
Aug 28
Last Quarter
Sep 5
New
Sep 12
First Quarter
Sep 19
Full

Hourly Weather History & Observations

Time (CST) Temp. Dew Point Humidity Pressure Visibility Wind Dir Wind Speed Gust Speed Precip Events Conditions
12:00 AM 51 °F 41 °F 60% 30.20 in - East 4.6 mph - -  
12:00 AM 50.5 °F 41.4 °F 71% 30.20 in - East 4.6 mph - N/A   Unknown
1:00 AM 51.1 °F 40.8 °F 68% 30.20 in - ESE 5.8 mph - N/A   Unknown
2:00 AM 49.6 °F 41.0 °F 72% 30.20 in - ESE 4.6 mph - N/A   Unknown
3:00 AM 48.7 °F 40.8 °F 74% 30.19 in - SE 4.6 mph - N/A   Unknown
4:00 AM 48.0 °F 41.9 °F 79% 30.19 in - ESE 4.6 mph - N/A   Unknown
5:00 AM 47.8 °F 43.0 °F 83% 30.19 in - SE 4.6 mph - N/A   Unknown
6:00 AM 48.9 °F 42.1 °F 77% 30.19 in - SE 4.6 mph - N/A   Unknown
7:00 AM 50.7 °F 42.8 °F 74% 30.20 in - ESE 3.5 mph - N/A   Unknown
8:00 AM 59.0 °F 43.0 °F 55% 30.20 in - SE 4.6 mph - N/A   Unknown
9:00 AM 67.1 °F 38.3 °F 35% 30.19 in - SSE 11.5 mph 17.3 mph N/A   Unknown
3:00 PM 80.6 °F 46.4 °F 30% 30.06 in - SSE 12.7 mph 20.7 mph N/A   Unknown
4:00 PM 80.2 °F 47.7 °F 32% 30.04 in - South 11.5 mph 18.4 mph N/A   Unknown
5:00 PM 80.6 °F 47.5 °F 31% 30.01 in - SE 11.5 mph 18.4 mph N/A   Unknown
6:00 PM 80 °F 48 °F 22% 29.99 in - SSE 10.4 mph - -  
6:00 PM 80.2 °F 47.7 °F 32% 29.99 in - SSE 10.4 mph - N/A   Unknown
7:00 PM 78.3 °F 48.9 °F 36% 29.96 in - SE 8.1 mph - N/A   Unknown
8:00 PM 72.5 °F 52.5 °F 49% 29.95 in - ESE 6.9 mph - N/A   Unknown
9:00 PM 67.6 °F 53.1 °F 59% 29.96 in - SE 5.8 mph - N/A   Unknown
10:00 PM 66.2 °F 53.4 °F 63% - - SE 8.1 mph - N/A   Unknown
11:00 PM 65.5 °F 53.1 °F 64% - - ESE 6.9 mph - N/A   Unknown